Weather History for Inverness, FL

Change the Weather History Date:

Tuesday, May 14, 2013

  Actual Average (KOCF) Record (KOCF)
Temperature  
Mean Temperature 64 °F -  
Max Temperature 82 °F 86 °F 93 °F (2000)
Min Temperature 46 °F 60 °F 46 °F (2013)
Degree Days  
Heating Degree Days 1    
Growing Degree Days 14 (Base 50)    
Moisture  
Dew Point 41 °F    
Average Humidity 46    
Maximum Humidity 87    
Minimum Humidity 19    
Precipitation  
Precipitation 0.00 in - - ()
Sea Level Pressure  
Sea Level Pressure 30.20 in    
Wind  
Wind Speed 2 mph (NNE)    
Max Wind Speed 9 mph    
Max Gust Speed 16 mph    
Visibility 9 miles    
Events      
Averages and records for this station are not official NWS values.
T = Trace of Precipitation, MM = Missing Value Source: NWS Daily Summary

Daily Weather History Graph

Daily Weather History Graph

Search for Another Location

Airport:

Trip Planner

Search our weather history database for the weather conditions in past years. The results will help you decide how hot, cold, wet, or windy it might be!

Date:

Astronomy

May. 14, 2013 Rise Set
Actual Time 6:38 AM EDT 8:13 PM EDT
Civil Twilight 6:12 AM EDT 8:38 PM EDT
Nautical Twilight 5:42 AM EDT 9:09 PM EDT
Astronomical Twilight 5:09 AM EDT 9:42 PM EDT
Moon 10:16 AM EDT (5/14) No Moon Set
Length of Visible Light 14h 25m
Length of Day
13h 34m
Waxing Crescent, 19% of the Moon is Illuminated
May 14
Waxing Crescent
May 18
First Quarter
May 25
Full
May 31
Last Quarter
Jun 8
New

Hourly Weather History & Observations

Time (EDT) Temp. Dew Point Humidity Pressure Visibility Wind Dir Wind Speed Gust Speed Precip Events Conditions
12:15 AM 55.4 °F 44.6 °F 67% 30.17 in 10.0 mi Calm Calm - N/A   Clear
12:35 AM 53.6 °F 44.6 °F 72% 30.17 in 10.0 mi Calm Calm - N/A   Clear
12:55 AM 53.6 °F 46.4 °F 77% 30.18 in 10.0 mi Calm Calm - N/A   Clear
1:15 AM 51.8 °F 44.6 °F 76% 30.17 in 10.0 mi Calm Calm - N/A   Clear
1:35 AM 53.6 °F 44.6 °F 72% 30.17 in 10.0 mi Calm Calm - N/A   Clear
1:55 AM 51.8 °F 44.6 °F 76% 30.17 in 10.0 mi Calm Calm - N/A   Clear
2:15 AM 51.8 °F 44.6 °F 76% 30.17 in 10.0 mi Calm Calm - N/A   Clear
2:35 AM 51.8 °F 44.6 °F 76% 30.17 in 10.0 mi Calm Calm - N/A   Clear
2:55 AM 50.0 °F 44.6 °F 82% 30.17 in 10.0 mi Calm Calm - N/A   Clear
3:15 AM 50.0 °F 44.6 °F 82% 30.17 in 10.0 mi Calm Calm - N/A   Clear
3:35 AM 50.0 °F 42.8 °F 76% 30.17 in 10.0 mi Calm Calm - N/A   Clear
3:55 AM 50.0 °F 44.6 °F 82% 30.17 in 10.0 mi Calm Calm - N/A   Clear
4:15 AM 48.2 °F 42.8 °F 82% 30.18 in 10.0 mi Calm Calm - N/A   Clear
4:35 AM 50.0 °F 42.8 °F 76% 30.18 in 10.0 mi Calm Calm - N/A   Clear
4:55 AM 50.0 °F 42.8 °F 76% 30.18 in 10.0 mi Calm Calm - N/A   Clear
5:15 AM 48.2 °F 42.8 °F 82% 30.18 in 10.0 mi Calm Calm - N/A   Clear
5:35 AM 48.2 °F 42.8 °F 82% 30.19 in 10.0 mi Calm Calm - N/A   Clear
5:55 AM 48.2 °F 42.8 °F 82% 30.19 in 10.0 mi Calm Calm - N/A   Clear
6:15 AM 48.2 °F 42.8 °F 82% 30.19 in 10.0 mi Calm Calm - N/A   Clear
6:35 AM 46.4 °F 42.8 °F 87% 30.20 in 10.0 mi Calm Calm - N/A   Clear
6:55 AM 46.4 °F 42.8 °F 87% 30.21 in 10.0 mi Calm Calm - N/A   Clear
7:15 AM 46.4 °F 42.8 °F 87% 30.22 in 10.0 mi Calm Calm - N/A   Clear
7:35 AM 50.0 °F 44.6 °F 82% 30.22 in 10.0 mi Calm Calm - N/A   Clear
7:55 AM 53.6 °F 46.4 °F 77% 30.23 in 10.0 mi Calm Calm - N/A   Clear
8:15 AM 59.0 °F 48.2 °F 67% 30.24 in 10.0 mi North 3.5 mph - N/A   Clear
8:35 AM 64.4 °F 41.0 °F 42% 30.24 in 10.0 mi NNE 8.1 mph - N/A   Clear
8:55 AM 66.2 °F 41.0 °F 40% 30.24 in 10.0 mi NNE 8.1 mph - N/A   Clear
9:15 AM 68.0 °F 41.0 °F 37% 30.24 in 10.0 mi NE 8.1 mph - N/A   Clear
9:35 AM 69.8 °F 41.0 °F 35% 30.25 in 10.0 mi NNE 8.1 mph - N/A   Clear
9:55 AM 69.8 °F 41.0 °F 35% 30.24 in 10.0 mi NNE 8.1 mph - N/A   Clear
10:15 AM 71.6 °F 39.2 °F 31% 30.24 in 10.0 mi NE 9.2 mph - N/A   Clear
10:35 AM 73.4 °F 39.2 °F 29% 30.25 in 10.0 mi NE 6.9 mph - N/A   Clear
10:55 AM 75.2 °F 37.4 °F 25% 30.24 in 10.0 mi NE 6.9 mph 16.1 mph N/A   Clear
11:15 AM 77.0 °F 37.4 °F 24% 30.25 in 7.0 mi ENE 9.2 mph - N/A   Clear
11:35 AM 77.0 °F 37.4 °F 24% 30.25 in 7.0 mi East 8.1 mph - N/A   Clear
11:55 AM 77.0 °F 37.4 °F 24% 30.25 in 10.0 mi NE 4.6 mph - N/A   Clear
12:15 PM 77.0 °F 39.2 °F 26% 30.25 in 5.0 mi NE 3.5 mph - N/A   Haze
12:35 PM 78.8 °F 39.2 °F 24% 30.25 in 7.0 mi NE 5.8 mph - N/A   Clear
12:55 PM 78.8 °F 37.4 °F 23% 30.24 in 5.0 mi North 6.9 mph - N/A   Haze
1:15 PM 78.8 °F 41.0 °F 26% 30.24 in 7.0 mi NNW 3.5 mph - N/A   Clear
1:35 PM 78.8 °F 37.4 °F 23% 30.23 in 7.0 mi NNW 4.6 mph - N/A   Clear
1:55 PM 80.6 °F 37.4 °F 21% 30.23 in 7.0 mi North 6.9 mph - N/A   Clear
2:15 PM 80.6 °F 35.6 °F 20% 30.22 in 7.0 mi Calm Calm - N/A   Clear
2:35 PM 80.6 °F 35.6 °F 20% 30.21 in 7.0 mi North 4.6 mph - N/A   Clear
2:55 PM 82.4 °F 35.6 °F 19% 30.20 in 7.0 mi North 4.6 mph - N/A   Clear
3:15 PM 80.6 °F 35.6 °F 20% 30.19 in 7.0 mi NE 4.6 mph - N/A   Clear
3:35 PM 82.4 °F 35.6 °F 19% 30.19 in 7.0 mi NE 6.9 mph - N/A   Clear
3:55 PM 82.4 °F 35.6 °F 19% 30.18 in 5.0 mi Calm Calm - N/A   Haze
4:15 PM 82.4 °F 35.6 °F 19% 30.17 in 7.0 mi North 8.1 mph - N/A   Clear
4:35 PM 82.4 °F 37.4 °F 20% 30.16 in 7.0 mi North 5.8 mph - N/A   Clear
4:55 PM 82.4 °F 37.4 °F 20% 30.16 in 7.0 mi North 6.9 mph - N/A   Clear
5:15 PM 82.4 °F 37.4 °F 20% 30.16 in 7.0 mi NNW 5.8 mph - N/A   Clear
5:35 PM 82.4 °F 37.4 °F 20% 30.16 in 10.0 mi North 5.8 mph - N/A   Clear
5:55 PM 82.4 °F 35.6 °F 19% 30.15 in 10.0 mi North 4.6 mph - N/A   Clear
6:15 PM 80.6 °F 37.4 °F 21% 30.15 in 10.0 mi North 6.9 mph - N/A   Clear
6:35 PM 80.6 °F 37.4 °F 21% 30.15 in 10.0 mi North 8.1 mph - N/A   Clear
6:55 PM 80.6 °F 37.4 °F 21% 30.14 in 10.0 mi North 5.8 mph - N/A   Clear
7:15 PM 78.8 °F 37.4 °F 23% 30.14 in 10.0 mi North 5.8 mph - N/A   Clear
7:35 PM 77.0 °F 39.2 °F 26% 30.15 in 10.0 mi North 4.6 mph - N/A   Clear
7:55 PM 75.2 °F 41.0 °F 29% 30.15 in 10.0 mi North 4.6 mph - N/A   Clear
8:15 PM 73.4 °F 41.0 °F 31% 30.16 in 10.0 mi North 4.6 mph - N/A   Clear
8:35 PM 73.4 °F 41.0 °F 31% 30.17 in 10.0 mi North 3.5 mph - N/A   Clear
8:55 PM 71.6 °F 41.0 °F 33% 30.18 in 10.0 mi Calm Calm - N/A   Clear
9:15 PM 69.8 °F 42.8 °F 38% 30.18 in 10.0 mi Calm Calm - N/A   Clear
9:35 PM 69.8 °F 42.8 °F 38% 30.19 in 10.0 mi Calm Calm - N/A   Clear
9:55 PM 68.0 °F 42.8 °F 40% 30.20 in 10.0 mi NE 4.6 mph - N/A   Clear
10:15 PM 69.8 °F 44.6 °F 40% 30.21 in 10.0 mi Calm Calm - N/A   Clear
10:35 PM 68.0 °F 46.4 °F 46% 30.22 in 10.0 mi Calm Calm - N/A   Clear
10:55 PM 68.0 °F 46.4 °F 46% 30.22 in 10.0 mi Calm Calm - N/A   Clear
11:15 PM 66.2 °F 48.2 °F 52% 30.22 in 10.0 mi Calm Calm - N/A   Clear
11:35 PM 66.2 °F 48.2 °F 52% 30.22 in 10.0 mi Calm Calm - N/A   Clear
11:55 PM 64.4 °F 50.0 °F 59% 30.22 in 10.0 mi Calm Calm - N/A   Clear